Time,TemperatureF,DewpointF,PressureIn,WindDirection,WindDirectionDegrees,WindSpeedMPH,WindSpeedGustMPH,Humidity,HourlyPrecipIn,Conditions,Clouds,dailyrainin,SoftwareType,DateUTC
2013-01-31 00:01:00,38.1,25.1,30.29,NW,322,0.0,0.0,59,0.00,,SKC,0.00,VWS V14.01,2013-01-31 06:01:00,
2013-01-31 00:06:00,38.0,25.0,30.29,NW,322,0.0,0.0,59,0.00,,SKC,0.00,VWS V14.01,2013-01-31 06:06:00,
2013-01-31 00:11:00,37.9,25.3,30.27,NW,322,0.0,0.0,60,0.00,,SKC,0.00,VWS V14.01,2013-01-31 06:11:00,
2013-01-31 00:16:00,37.7,25.1,30.27,NW,322,0.0,0.0,60,0.00,,SKC,0.00,VWS V14.01,2013-01-31 06:16:00,
2013-01-31 00:21:00,37.6,25.0,30.28,NW,322,0.0,0.0,60,0.00,,SKC,0.00,VWS V14.01,2013-01-31 06:21:00,
2013-01-31 00:26:00,37.4,24.8,30.27,NW,322,0.0,0.0,60,0.00,,SKC,0.00,VWS V14.01,2013-01-31 06:26:00,
2013-01-31 00:31:00,37.3,25.1,30.26,NW,322,0.0,0.0,61,0.00,,SKC,0.00,VWS V14.01,2013-01-31 06:31:00,
2013-01-31 00:36:00,37.1,25.3,30.26,NW,322,0.0,0.0,62,0.00,,SKC,0.00,VWS V14.01,2013-01-31 06:36:00,
2013-01-31 00:41:00,36.9,25.1,30.26,NW,322,0.0,1.0,62,0.00,,SKC,0.00,VWS V14.01,2013-01-31 06:41:00,
2013-01-31 00:46:00,36.8,25.0,30.26,NW,322,0.0,1.0,62,0.00,,SKC,0.00,VWS V14.01,2013-01-31 06:46:00,
2013-01-31 00:51:00,36.7,24.9,30.25,NW,322,0.0,1.0,62,0.00,,SKC,0.00,VWS V14.01,2013-01-31 06:51:00,
2013-01-31 00:56:00,36.7,24.9,30.25,NW,322,0.0,1.0,62,0.00,,SKC,0.00,VWS V14.01,2013-01-31 06:56:00,
2013-01-31 01:01:00,36.6,24.8,30.26,NW,322,0.0,1.0,62,0.00,,SKC,0.00,VWS V14.01,2013-01-31 07:01:00,
2013-01-31 01:06:00,36.6,25.2,30.26,NW,322,0.0,0.0,63,0.00,,SKC,0.00,VWS V14.01,2013-01-31 07:06:00,
2013-01-31 01:11:00,36.5,25.1,30.26,NW,322,0.0,0.0,63,0.00,,SKC,0.00,VWS V14.01,2013-01-31 07:11:00,
2013-01-31 01:16:00,36.4,25.4,30.26,NW,322,0.0,0.0,64,0.00,,SKC,0.00,VWS V14.01,2013-01-31 07:16:00,
2013-01-31 01:21:00,36.4,25.4,30.26,NW,322,0.0,0.0,64,0.00,,SKC,0.00,VWS V14.01,2013-01-31 07:21:00,
2013-01-31 01:26:00,36.3,25.3,30.27,NW,322,0.0,0.0,64,0.00,,SKC,0.00,VWS V14.01,2013-01-31 07:26:00,
2013-01-31 01:31:00,36.1,25.1,30.28,NW,322,0.0,0.0,64,0.00,,SKC,0.00,VWS V14.01,2013-01-31 07:31:00,
2013-01-31 01:36:00,35.9,25.3,30.28,NW,322,0.0,1.0,65,0.00,,SKC,0.00,VWS V14.01,2013-01-31 07:36:00,
2013-01-31 01:41:00,35.7,25.1,30.27,NW,322,0.0,1.0,65,0.00,,SKC,0.00,VWS V14.01,2013-01-31 07:41:00,
2013-01-31 01:46:00,35.6,25.0,30.26,NW,322,0.0,1.0,65,0.00,,SKC,0.00,VWS V14.01,2013-01-31 07:46:00,
2013-01-31 01:51:00,35.5,25.3,30.26,NW,322,0.0,1.0,66,0.00,,SKC,0.00,VWS V14.01,2013-01-31 07:51:00,
2013-01-31 01:56:00,35.3,25.5,30.27,NW,322,0.0,1.0,67,0.00,,SKC,0.00,VWS V14.01,2013-01-31 07:56:00,
2013-01-31 02:01:00,35.1,25.3,30.27,NW,322,0.0,1.0,67,0.00,,SKC,0.00,VWS V14.01,2013-01-31 08:01:00,
2013-01-31 02:06:00,34.9,25.1,30.26,NW,322,0.0,0.0,67,0.00,,SKC,0.00,VWS V14.01,2013-01-31 08:06:00,
2013-01-31 02:11:00,34.8,25.0,30.26,NW,322,0.0,0.0,67,0.00,,SKC,0.00,VWS V14.01,2013-01-31 08:11:00,
2013-01-31 02:16:00,34.6,25.1,30.26,NW,322,0.0,0.0,68,0.00,,SKC,0.00,VWS V14.01,2013-01-31 08:16:00,
2013-01-31 02:21:00,34.4,24.6,30.26,NW,322,0.0,1.0,67,0.00,,SKC,0.00,VWS V14.01,2013-01-31 08:21:00,
2013-01-31 02:26:00,34.3,24.5,30.26,NW,322,0.0,1.0,67,0.00,,SKC,0.00,VWS V14.01,2013-01-31 08:26:00,
2013-01-31 02:31:00,34.3,24.5,30.26,NW,322,0.0,1.0,67,0.00,,SKC,0.00,VWS V14.01,2013-01-31 08:31:00,
2013-01-31 02:36:00,34.3,24.5,30.26,NW,322,0.0,0.0,67,0.00,,SKC,0.00,VWS V14.01,2013-01-31 08:36:00,
2013-01-31 02:41:00,34.2,24.4,30.26,NW,322,0.0,0.0,67,0.00,,SKC,0.00,VWS V14.01,2013-01-31 08:41:00,
2013-01-31 02:46:00,34.2,24.4,30.26,NW,322,0.0,0.0,67,0.00,,SKC,0.00,VWS V14.01,2013-01-31 08:46:00,
2013-01-31 02:51:00,34.1,24.3,30.26,NW,322,0.0,0.0,67,0.00,,SKC,0.00,VWS V14.01,2013-01-31 08:51:00,
2013-01-31 02:56:00,34.0,24.2,30.26,NW,322,0.0,0.0,67,0.00,,SKC,0.00,VWS V14.01,2013-01-31 08:56:00,
2013-01-31 03:01:00,33.9,24.5,30.26,NW,322,0.0,0.0,68,0.00,,SKC,0.00,VWS V14.01,2013-01-31 09:01:00,
2013-01-31 03:06:00,33.7,24.3,30.27,NW,322,0.0,0.0,68,0.00,,SKC,0.00,VWS V14.01,2013-01-31 09:06:00,
2013-01-31 03:11:00,33.7,24.6,30.27,NW,322,0.0,2.0,69,0.00,,SKC,0.00,VWS V14.01,2013-01-31 09:11:00,
2013-01-31 03:16:00,33.7,24.6,30.27,NW,322,0.0,2.0,69,0.00,,SKC,0.00,VWS V14.01,2013-01-31 09:16:00,
2013-01-31 03:21:00,33.7,24.6,30.27,NW,322,0.0,2.0,69,0.00,,SKC,0.00,VWS V14.01,2013-01-31 09:21:00,
2013-01-31 03:26:00,33.8,24.7,30.27,NW,322,0.0,2.0,69,0.00,,SKC,0.00,VWS V14.01,2013-01-31 09:26:00,
2013-01-31 03:31:00,33.7,24.6,30.27,NW,322,0.0,2.0,69,0.00,,SKC,0.00,VWS V14.01,2013-01-31 09:31:00,
2013-01-31 03:36:00,33.7,24.6,30.27,NW,322,0.0,0.0,69,0.00,,SKC,0.00,VWS V14.01,2013-01-31 09:36:00,
2013-01-31 03:41:00,33.6,24.9,30.27,NW,322,0.0,0.0,70,0.00,,SKC,0.00,VWS V14.01,2013-01-31 09:41:00,
2013-01-31 03:46:00,33.5,24.8,30.27,NW,322,0.0,0.0,70,0.00,,SKC,0.00,VWS V14.01,2013-01-31 09:46:00,
2013-01-31 03:51:00,33.3,24.6,30.27,NW,322,0.0,0.0,70,0.00,,SKC,0.00,VWS V14.01,2013-01-31 09:51:00,
2013-01-31 03:56:00,33.2,24.5,30.27,NW,322,0.0,0.0,70,0.00,,SKC,0.00,VWS V14.01,2013-01-31 09:56:00,
2013-01-31 04:01:00,33.1,24.4,30.27,NW,322,0.0,0.0,70,0.00,,SKC,0.00,VWS V14.01,2013-01-31 10:01:00,
2013-01-31 04:06:00,32.9,24.2,30.27,NW,322,0.0,0.0,70,0.00,,SKC,0.00,VWS V14.01,2013-01-31 10:06:00,
2013-01-31 04:11:00,32.8,24.5,30.28,NW,322,0.0,0.0,71,0.00,,SKC,0.00,VWS V14.01,2013-01-31 10:11:00,
2013-01-31 04:16:00,32.6,24.6,30.28,NW,322,0.0,0.0,72,0.00,,SKC,0.00,VWS V14.01,2013-01-31 10:16:00,
2013-01-31 04:21:00,32.6,24.6,30.28,NW,322,0.0,0.0,72,0.00,,SKC,0.00,VWS V14.01,2013-01-31 10:21:00,
2013-01-31 04:26:00,32.5,24.5,30.29,NW,322,0.0,0.0,72,0.00,,SKC,0.00,VWS V14.01,2013-01-31 10:26:00,
2013-01-31 04:31:00,32.5,24.5,30.28,NW,322,0.0,0.0,72,0.00,,SKC,0.00,VWS V14.01,2013-01-31 10:31:00,
2013-01-31 04:36:00,32.4,24.7,30.28,NW,322,0.0,0.0,73,0.00,,SKC,0.00,VWS V14.01,2013-01-31 10:36:00,
2013-01-31 04:41:00,32.3,24.6,30.28,NW,322,0.0,0.0,73,0.00,,SKC,0.00,VWS V14.01,2013-01-31 10:41:00,
2013-01-31 04:46:00,32.2,24.5,30.28,NW,322,0.0,0.0,73,0.00,,SKC,0.00,VWS V14.01,2013-01-31 10:46:00,
2013-01-31 04:51:00,32.1,24.4,30.28,NW,322,0.0,0.0,73,0.00,,SKC,0.00,VWS V14.01,2013-01-31 10:51:00,
2013-01-31 04:56:00,32.0,24.3,30.29,NW,322,0.0,0.0,73,0.00,,SKC,0.00,VWS V14.01,2013-01-31 10:56:00,
2013-01-31 05:01:00,31.9,24.2,30.28,NW,322,0.0,0.0,73,0.00,,SKC,0.00,VWS V14.01,2013-01-31 11:01:00,
2013-01-31 05:06:00,31.9,24.6,30.28,NW,322,0.0,0.0,74,0.00,,SKC,0.00,VWS V14.01,2013-01-31 11:06:00,
2013-01-31 05:11:00,31.7,24.4,30.28,NW,322,0.0,0.0,74,0.00,,SKC,0.00,VWS V14.01,2013-01-31 11:11:00,
2013-01-31 05:16:00,31.7,24.4,30.28,NW,322,0.0,0.0,74,0.00,,SKC,0.00,VWS V14.01,2013-01-31 11:16:00,
2013-01-31 05:21:00,31.7,24.4,30.29,NW,322,0.0,0.0,74,0.00,,SKC,0.00,VWS V14.01,2013-01-31 11:21:00,
2013-01-31 05:26:00,31.7,24.7,30.29,NW,322,0.0,0.0,75,0.00,,SKC,0.00,VWS V14.01,2013-01-31 11:26:00,
2013-01-31 05:31:00,31.6,24.6,30.28,NW,322,0.0,0.0,75,0.00,,SKC,0.00,VWS V14.01,2013-01-31 11:31:00,
2013-01-31 05:36:00,31.7,24.7,30.28,NW,322,0.0,0.0,75,0.00,,SKC,0.00,VWS V14.01,2013-01-31 11:36:00,
2013-01-31 05:41:00,31.7,24.7,30.28,NW,322,0.0,0.0,75,0.00,,SKC,0.00,VWS V14.01,2013-01-31 11:41:00,
2013-01-31 05:46:00,31.8,24.5,30.28,NW,322,0.0,0.0,74,0.00,,SKC,0.00,VWS V14.01,2013-01-31 11:46:00,
2013-01-31 05:51:00,31.8,24.5,30.29,NW,322,0.0,0.0,74,0.00,,SKC,0.00,VWS V14.01,2013-01-31 11:51:00,
2013-01-31 05:56:00,31.9,24.6,30.30,NW,322,0.0,0.0,74,0.00,,SKC,0.00,VWS V14.01,2013-01-31 11:56:00,
2013-01-31 06:01:00,32.0,24.3,30.30,NW,322,0.0,0.0,73,0.00,,SKC,0.00,VWS V14.01,2013-01-31 12:01:00,
2013-01-31 06:06:00,32.1,24.4,30.30,NW,322,0.0,0.0,73,0.00,,SKC,0.00,VWS V14.01,2013-01-31 12:06:00,
2013-01-31 06:11:00,32.1,24.1,30.30,NW,322,0.0,0.0,72,0.00,,SKC,0.00,VWS V14.01,2013-01-31 12:11:00,
2013-01-31 06:16:00,32.3,24.3,30.30,NW,322,0.0,0.0,72,0.00,,SKC,0.00,VWS V14.01,2013-01-31 12:16:00,
2013-01-31 06:21:00,32.3,24.0,30.31,NW,322,0.0,0.0,71,0.00,,SKC,0.00,VWS V14.01,2013-01-31 12:21:00,
2013-01-31 06:26:00,32.4,24.1,30.31,NW,322,0.0,0.0,71,0.00,,SKC,0.00,VWS V14.01,2013-01-31 12:26:00,
2013-01-31 06:31:00,32.3,24.0,30.31,NW,322,0.0,0.0,71,0.00,,SKC,0.00,VWS V14.01,2013-01-31 12:31:00,
2013-01-31 06:36:00,32.3,24.0,30.30,NW,322,0.0,0.0,71,0.00,,SKC,0.00,VWS V14.01,2013-01-31 12:36:00,
2013-01-31 06:41:00,32.3,24.0,30.31,NW,322,0.0,0.0,71,0.00,,SKC,0.00,VWS V14.01,2013-01-31 12:41:00,
2013-01-31 06:46:00,32.3,24.0,30.31,NW,322,0.0,0.0,71,0.00,,SKC,0.00,VWS V14.01,2013-01-31 12:46:00,
2013-01-31 06:51:00,32.3,23.6,30.31,NW,322,0.0,0.0,70,0.00,,SKC,0.00,VWS V14.01,2013-01-31 12:51:00,
2013-01-31 06:56:00,32.4,23.7,30.32,NW,322,0.0,0.0,70,0.00,,SKC,0.00,VWS V14.01,2013-01-31 12:56:00,
2013-01-31 07:01:00,32.6,23.9,30.31,NW,322,0.0,0.0,70,0.00,,SKC,0.00,VWS V14.01,2013-01-31 13:01:00,
2013-01-31 07:06:00,32.8,23.8,30.32,NW,322,0.0,0.0,69,0.00,,SKC,0.00,VWS V14.01,2013-01-31 13:06:00,
2013-01-31 07:11:00,32.9,23.5,30.32,NW,322,0.0,0.0,68,0.00,,SKC,0.00,VWS V14.01,2013-01-31 13:11:00,
2013-01-31 07:16:00,33.0,23.6,30.32,NW,322,0.0,0.0,68,0.00,,SKC,0.00,VWS V14.01,2013-01-31 13:16:00,
2013-01-31 07:21:00,33.1,23.4,30.32,NW,322,0.0,0.0,67,0.00,,SKC,0.00,VWS V14.01,2013-01-31 13:21:00,
2013-01-31 07:26:00,33.2,23.5,30.32,NW,322,0.0,0.0,67,0.00,,SKC,0.00,VWS V14.01,2013-01-31 13:26:00,
2013-01-31 07:31:00,33.4,23.6,30.32,NW,322,0.0,0.0,67,0.00,,SKC,0.00,VWS V14.01,2013-01-31 13:31:00,
2013-01-31 07:36:00,33.4,23.6,30.32,NW,322,0.0,0.0,67,0.00,,SKC,0.00,VWS V14.01,2013-01-31 13:36:00,
2013-01-31 07:41:00,33.5,23.4,30.33,NW,322,0.0,0.0,66,0.00,,SKC,0.00,VWS V14.01,2013-01-31 13:41:00,
2013-01-31 07:46:00,33.7,22.8,30.33,NW,322,0.0,0.0,64,0.00,,SKC,0.00,VWS V14.01,2013-01-31 13:46:00,
2013-01-31 07:51:00,34.2,22.9,30.33,NW,322,0.0,0.0,63,0.00,,SKC,0.00,VWS V14.01,2013-01-31 13:51:00,
2013-01-31 07:56:00,34.9,22.8,30.33,NW,322,0.0,0.0,61,0.00,,SKC,0.00,VWS V14.01,2013-01-31 13:56:00,
2013-01-31 08:01:00,35.5,23.0,30.34,NW,322,0.0,0.0,60,0.00,,SKC,0.00,VWS V14.01,2013-01-31 14:01:00,
2013-01-31 08:06:00,36.0,23.1,30.34,NW,322,0.0,0.0,59,0.00,,SKC,0.00,VWS V14.01,2013-01-31 14:06:00,
2013-01-31 08:11:00,36.7,23.3,30.34,NW,322,0.0,0.0,58,0.00,,SKC,0.00,VWS V14.01,2013-01-31 14:11:00,
2013-01-31 08:16:00,37.4,23.1,30.34,NW,322,0.0,1.0,56,0.00,,SKC,0.00,VWS V14.01,2013-01-31 14:16:00,
2013-01-31 08:21:00,38.0,23.7,30.34,NW,322,0.0,1.0,56,0.00,,SKC,0.00,VWS V14.01,2013-01-31 14:21:00,
2013-01-31 08:26:00,38.8,23.6,30.34,NW,322,1.0,3.0,54,0.00,,SKC,0.00,VWS V14.01,2013-01-31 14:26:00,
2013-01-31 08:31:00,39.8,23.2,30.34,NW,313,0.0,5.0,51,0.00,,SKC,0.00,VWS V14.01,2013-01-31 14:31:00,
2013-01-31 08:36:00,41.0,22.8,30.34,WNW,303,3.0,5.0,48,0.00,,SKC,0.00,VWS V14.01,2013-01-31 14:36:00,
2013-01-31 08:41:00,42.1,22.8,30.35,WNW,290,2.0,6.0,46,0.00,,SKC,0.00,VWS V14.01,2013-01-31 14:41:00,
2013-01-31 08:46:00,42.9,23.6,30.35,WNW,287,2.0,6.0,46,0.00,,SKC,0.00,VWS V14.01,2013-01-31 14:46:00,
2013-01-31 08:51:00,43.5,22.5,30.35,West,278,4.0,6.0,43,0.00,,SKC,0.00,VWS V14.01,2013-01-31 14:51:00,
2013-01-31 08:56:00,44.1,23.0,30.36,West,275,2.0,6.0,43,0.00,,SKC,0.00,VWS V14.01,2013-01-31 14:56:00,
2013-01-31 09:01:00,44.8,23.1,30.36,West,264,3.0,8.0,42,0.00,,SKC,0.00,VWS V14.01,2013-01-31 15:01:00,
2013-01-31 09:06:00,45.3,23.6,30.36,West,263,5.0,5.0,42,0.00,,SKC,0.00,VWS V14.01,2013-01-31 15:06:00,
2013-01-31 09:11:00,45.8,24.6,30.36,West,263,2.0,6.0,43,0.00,,SKC,0.00,VWS V14.01,2013-01-31 15:11:00,
2013-01-31 09:16:00,46.3,25.0,30.36,West,262,0.0,6.0,43,0.00,,SKC,0.00,VWS V14.01,2013-01-31 15:16:00,
2013-01-31 09:21:00,46.8,24.9,30.36,West,259,2.0,6.0,42,0.00,,SKC,0.00,VWS V14.01,2013-01-31 15:21:00,
2013-01-31 09:26:00,47.4,25.5,30.36,WSW,257,4.0,6.0,42,0.00,,SKC,0.00,VWS V14.01,2013-01-31 15:26:00,
2013-01-31 09:31:00,48.0,25.4,30.35,WSW,255,5.0,6.0,41,0.00,,SKC,0.00,VWS V14.01,2013-01-31 15:31:00,
2013-01-31 09:36:00,48.8,23.7,30.36,SW,234,6.0,9.0,37,0.00,,SKC,0.00,VWS V14.01,2013-01-31 15:36:00,
2013-01-31 09:41:00,49.7,23.2,30.36,SW,225,5.0,9.0,35,0.00,,SKC,0.00,VWS V14.01,2013-01-31 15:41:00,
2013-01-31 09:46:00,50.7,21.9,30.36,SW,234,7.0,10.0,32,0.00,,SKC,0.00,VWS V14.01,2013-01-31 15:46:00,
2013-01-31 09:51:00,51.4,21.8,30.36,SSW,207,0.0,10.0,31,0.00,,SKC,0.00,VWS V14.01,2013-01-31 15:51:00,
2013-01-31 09:56:00,51.9,21.5,30.36,SW,215,7.0,13.0,30,0.00,,SKC,0.00,VWS V14.01,2013-01-31 15:56:00,
2013-01-31 10:01:00,52.3,21.8,30.36,SW,234,6.0,13.0,30,0.00,,SKC,0.00,VWS V14.01,2013-01-31 16:01:00,
2013-01-31 10:06:00,52.8,21.4,30.36,SW,230,8.0,12.0,29,0.00,,SKC,0.00,VWS V14.01,2013-01-31 16:06:00,
2013-01-31 10:11:00,53.2,21.0,30.36,SSW,202,3.0,12.0,28,0.00,,SKC,0.00,VWS V14.01,2013-01-31 16:11:00,
2013-01-31 10:16:00,53.5,20.4,30.36,SW,232,9.0,12.0,27,0.00,,SKC,0.00,VWS V14.01,2013-01-31 16:16:00,
2013-01-31 10:21:00,53.5,20.4,30.37,SW,224,3.0,13.0,27,0.00,,SKC,0.00,VWS V14.01,2013-01-31 16:21:00,
2013-01-31 10:26:00,53.6,21.3,30.36,SSW,206,5.0,13.0,28,0.00,,SKC,0.00,VWS V14.01,2013-01-31 16:26:00,
2013-01-31 10:31:00,53.8,21.5,30.37,WSW,248,10.0,13.0,28,0.00,,SKC,0.00,VWS V14.01,2013-01-31 16:31:00,
2013-01-31 10:36:00,53.9,21.6,30.37,SW,234,8.0,10.0,28,0.00,,SKC,0.00,VWS V14.01,2013-01-31 16:36:00,
2013-01-31 10:41:00,54.3,21.0,30.37,SW,223,8.0,12.0,27,0.00,,SKC,0.00,VWS V14.01,2013-01-31 16:41:00,
2013-01-31 10:46:00,54.8,21.5,30.38,WSW,248,7.0,14.0,27,0.00,,SKC,0.00,VWS V14.01,2013-01-31 16:46:00,
2013-01-31 10:51:00,55.5,21.2,30.37,SSW,194,4.0,14.0,26,0.00,,SKC,0.00,VWS V14.01,2013-01-31 16:51:00,
2013-01-31 10:56:00,56.0,21.6,30.37,SSW,212,5.0,15.0,26,0.00,,SKC,0.00,VWS V14.01,2013-01-31 16:56:00,
2013-01-31 11:01:00,56.7,22.2,30.37,SW,232,6.0,15.0,26,0.00,,SKC,0.00,VWS V14.01,2013-01-31 17:01:00,
2013-01-31 11:06:00,57.2,21.7,30.38,SW,219,7.0,11.0,25,0.00,,SKC,0.00,VWS V14.01,2013-01-31 17:06:00,
2013-01-31 11:11:00,57.6,21.1,30.38,SW,220,10.0,15.0,24,0.00,,SKC,0.00,VWS V14.01,2013-01-31 17:11:00,
2013-01-31 11:16:00,57.9,22.3,30.37,SSW,198,6.0,15.0,25,0.00,,SKC,0.00,VWS V14.01,2013-01-31 17:16:00,
2013-01-31 11:21:00,58.3,21.7,30.37,SSW,202,12.0,19.0,24,0.00,,SKC,0.00,VWS V14.01,2013-01-31 17:21:00,
2013-01-31 11:26:00,58.4,21.8,30.37,SW,232,12.0,19.0,24,0.00,,SKC,0.00,VWS V14.01,2013-01-31 17:26:00,
2013-01-31 11:31:00,58.5,21.9,30.37,SSW,197,11.0,19.0,24,0.00,,SKC,0.00,VWS V14.01,2013-01-31 17:31:00,
2013-01-31 11:36:00,58.6,21.9,30.37,SW,223,7.0,14.0,24,0.00,,SKC,0.00,VWS V14.01,2013-01-31 17:36:00,
2013-01-31 11:41:00,58.6,21.9,30.37,SW,225,7.0,14.0,24,0.00,,SKC,0.00,VWS V14.01,2013-01-31 17:41:00,
2013-01-31 11:46:00,58.7,22.0,30.36,SSW,212,11.0,14.0,24,0.00,,SKC,0.00,VWS V14.01,2013-01-31 17:46:00,
2013-01-31 11:51:00,58.7,22.0,30.36,South,178,9.0,14.0,24,0.00,,SKC,0.00,VWS V14.01,2013-01-31 17:51:00,
2013-01-31 11:56:00,58.8,22.1,30.36,SSW,201,9.0,14.0,24,0.00,,SKC,0.00,VWS V14.01,2013-01-31 17:56:00,
2013-01-31 12:00:00,59.1,23.3,30.36,WSW,238,13.0,14.0,25,0.00,,SKC,0.00,VWS V14.01,2013-01-31 18:00:00,
2013-01-31 12:01:00,59.0,23.2,30.36,SSW,201,7.0,14.0,25,0.00,,SKC,0.00,VWS V14.01,2013-01-31 18:01:00,
2013-01-31 12:06:00,59.5,21.7,30.36,West,261,11.0,12.0,23,0.00,,SKC,0.00,VWS V14.01,2013-01-31 18:06:00,
2013-01-31 12:11:00,59.5,21.7,30.35,SW,223,4.0,14.0,23,0.00,,SKC,0.00,VWS V14.01,2013-01-31 18:11:00,
2013-01-31 12:16:00,59.6,22.8,30.35,West,259,4.0,14.0,24,0.00,,SKC,0.00,VWS V14.01,2013-01-31 18:16:00,
2013-01-31 12:21:00,60.0,22.1,30.35,SW,223,10.0,14.0,23,0.00,,SKC,0.00,VWS V14.01,2013-01-31 18:21:00,
2013-01-31 12:26:00,60.2,22.3,30.35,WSW,254,8.0,14.0,23,0.00,,SKC,0.00,VWS V14.01,2013-01-31 18:26:00,
2013-01-31 12:31:00,60.3,21.3,30.35,WSW,238,10.0,16.0,22,0.00,,SKC,0.00,VWS V14.01,2013-01-31 18:31:00,
2013-01-31 12:36:00,60.3,21.3,30.34,SW,229,6.0,14.0,22,0.00,,SKC,0.00,VWS V14.01,2013-01-31 18:36:00,
2013-01-31 12:41:00,60.6,21.6,30.34,SSW,210,7.0,14.0,22,0.00,,SKC,0.00,VWS V14.01,2013-01-31 18:41:00,
2013-01-31 12:46:00,61.0,20.8,30.34,SSW,207,4.0,14.0,21,0.00,,SKC,0.00,VWS V14.01,2013-01-31 18:46:00,
2013-01-31 12:51:00,61.2,21.0,30.34,South,185,12.0,15.0,21,0.00,,SKC,0.00,VWS V14.01,2013-01-31 18:51:00,
2013-01-31 12:56:00,61.5,22.3,30.33,SSW,199,12.0,15.0,22,0.00,,SKC,0.00,VWS V14.01,2013-01-31 18:56:00,
2013-01-31 13:00:00,61.8,20.3,30.33,SW,235,6.0,15.0,20,0.00,,SKC,0.00,VWS V14.01,2013-01-31 19:00:00,
2013-01-31 13:01:00,61.7,21.4,30.33,SSW,192,9.0,15.0,21,0.00,,SKC,0.00,VWS V14.01,2013-01-31 19:01:00,
2013-01-31 13:06:00,61.8,21.5,30.33,SSW,205,10.0,13.0,21,0.00,,SKC,0.00,VWS V14.01,2013-01-31 19:06:00,
2013-01-31 13:11:00,62.2,20.7,30.32,SSW,209,5.0,17.0,20,0.00,,SKC,0.00,VWS V14.01,2013-01-31 19:11:00,
2013-01-31 13:16:00,62.5,22.1,30.31,SSW,197,7.0,17.0,21,0.00,,SKC,0.00,VWS V14.01,2013-01-31 19:16:00,
2013-01-31 13:21:00,62.7,22.2,30.31,SSE,166,5.0,17.0,21,0.00,,SKC,0.00,VWS V14.01,2013-01-31 19:21:00,
2013-01-31 13:26:00,63.0,22.5,30.31,South,182,11.0,17.0,21,0.00,,SKC,0.00,VWS V14.01,2013-01-31 19:26:00,
2013-01-31 13:30:00,63.2,22.6,30.30,SW,221,5.0,17.0,21,0.00,,SKC,0.00,VWS V14.01,2013-01-31 19:30:00,
2013-01-31 13:31:00,63.2,22.6,30.30,SW,223,13.0,17.0,21,0.00,,SKC,0.00,VWS V14.01,2013-01-31 19:31:00,
2013-01-31 13:36:00,63.4,22.8,30.30,WSW,248,6.0,13.0,21,0.00,,SKC,0.00,VWS V14.01,2013-01-31 19:36:00,
2013-01-31 13:41:00,63.8,23.1,30.29,SW,227,4.0,13.0,21,0.00,,SKC,0.00,VWS V14.01,2013-01-31 19:41:00,
2013-01-31 13:46:00,64.1,23.4,30.28,SSW,209,12.0,17.0,21,0.00,,SKC,0.00,VWS V14.01,2013-01-31 19:46:00,
2013-01-31 13:51:00,64.0,23.3,30.28,South,190,11.0,17.0,21,0.00,,SKC,0.00,VWS V14.01,2013-01-31 19:51:00,
2013-01-31 13:56:00,64.1,23.4,30.28,SSW,206,11.0,17.0,21,0.00,,SKC,0.00,VWS V14.01,2013-01-31 19:56:00,
2013-01-31 14:01:00,64.4,23.6,30.27,WSW,237,13.0,17.0,21,0.00,,SKC,0.00,VWS V14.01,2013-01-31 20:01:00,
2013-01-31 14:06:00,64.5,23.7,30.27,SSW,202,8.0,13.0,21,0.00,,SKC,0.00,VWS V14.01,2013-01-31 20:06:00,
2013-01-31 14:11:00,64.8,22.8,30.26,SSW,193,6.0,14.0,20,0.00,,SKC,0.00,VWS V14.01,2013-01-31 20:11:00,
2013-01-31 14:16:00,64.8,21.6,30.27,SW,227,12.0,15.0,19,0.00,,SKC,0.00,VWS V14.01,2013-01-31 20:16:00,
2013-01-31 14:21:00,64.9,22.9,30.26,SW,230,7.0,15.0,20,0.00,,SKC,0.00,VWS V14.01,2013-01-31 20:21:00,
2013-01-31 14:26:00,65.3,23.2,30.26,SSW,197,6.0,15.0,20,0.00,,SKC,0.00,VWS V14.01,2013-01-31 20:26:00,
2013-01-31 14:30:00,65.8,23.6,30.26,SSW,205,3.0,15.0,20,0.00,,SKC,0.00,VWS V14.01,2013-01-31 20:30:00,
2013-01-31 14:31:00,65.7,23.6,30.26,SSW,192,6.0,15.0,20,0.00,,SKC,0.00,VWS V14.01,2013-01-31 20:31:00,
2013-01-31 14:36:00,66.0,22.6,30.26,SSW,207,7.0,14.0,19,0.00,,SKC,0.00,VWS V14.01,2013-01-31 20:36:00,
2013-01-31 14:41:00,66.0,22.6,30.26,SSW,208,10.0,14.0,19,0.00,,SKC,0.00,VWS V14.01,2013-01-31 20:41:00,
2013-01-31 14:46:00,65.9,23.7,30.26,West,263,12.0,14.0,20,0.00,,SKC,0.00,VWS V14.01,2013-01-31 20:46:00,
2013-01-31 14:51:00,66.1,21.4,30.26,SW,224,11.0,15.0,18,0.00,,SKC,0.00,VWS V14.01,2013-01-31 20:51:00,
2013-01-31 14:56:00,66.0,22.6,30.26,WSW,257,8.0,17.0,19,0.00,,SKC,0.00,VWS V14.01,2013-01-31 20:56:00,
2013-01-31 15:01:00,65.9,22.5,30.26,WSW,244,7.0,17.0,19,0.00,,SKC,0.00,VWS V14.01,2013-01-31 21:01:00,
2013-01-31 15:06:00,65.8,22.4,30.26,WSW,240,1.0,16.0,19,0.00,,SKC,0.00,VWS V14.01,2013-01-31 21:06:00,
2013-01-31 15:11:00,66.1,23.9,30.26,SW,236,3.0,16.0,20,0.00,,SKC,0.00,VWS V14.01,2013-01-31 21:11:00,
2013-01-31 15:16:00,66.3,22.8,30.26,WSW,255,11.0,16.0,19,0.00,,SKC,0.00,VWS V14.01,2013-01-31 21:16:00,
2013-01-31 15:21:00,66.3,22.8,30.26,SW,229,6.0,16.0,19,0.00,,SKC,0.00,VWS V14.01,2013-01-31 21:21:00,
2013-01-31 15:26:00,66.3,22.8,30.26,WSW,246,5.0,16.0,19,0.00,,SKC,0.00,VWS V14.01,2013-01-31 21:26:00,
2013-01-31 15:30:00,66.3,24.1,30.26,SSW,195,3.0,16.0,20,0.00,,SKC,0.00,VWS V14.01,2013-01-31 21:30:00,
2013-01-31 15:31:00,66.2,24.0,30.25,SSW,211,9.0,16.0,20,0.00,,SKC,0.00,VWS V14.01,2013-01-31 21:31:00,
2013-01-31 15:36:00,66.5,23.0,30.25,SW,218,11.0,13.0,19,0.00,,SKC,0.00,VWS V14.01,2013-01-31 21:36:00,
2013-01-31 15:41:00,66.7,23.2,30.25,SW,225,2.0,14.0,19,0.00,,SKC,0.00,VWS V14.01,2013-01-31 21:41:00,
2013-01-31 15:46:00,67.0,23.4,30.25,SSW,210,3.0,14.0,19,0.00,,SKC,0.00,VWS V14.01,2013-01-31 21:46:00,
2013-01-31 15:51:00,67.0,23.4,30.25,SW,232,7.0,14.0,19,0.00,,SKC,0.00,VWS V14.01,2013-01-31 21:51:00,
2013-01-31 15:56:00,66.9,23.3,30.25,SSW,212,11.0,14.0,19,0.00,,SKC,0.00,VWS V14.01,2013-01-31 21:56:00,
2013-01-31 16:00:00,66.9,23.3,30.25,SSW,207,4.0,14.0,19,0.00,,SKC,0.00,VWS V14.01,2013-01-31 22:00:00,
2013-01-31 16:01:00,66.9,23.3,30.25,SSW,201,5.0,14.0,19,0.00,,SKC,0.00,VWS V14.01,2013-01-31 22:01:00,
2013-01-31 16:05:00,67.0,23.4,30.25,SW,221,4.0,7.0,19,0.00,,SKC,0.00,VWS V14.01,2013-01-31 22:05:00,
2013-01-31 16:10:00,67.1,23.5,30.25,SSW,193,6.0,9.0,19,0.00,,SKC,0.00,VWS V14.01,2013-01-31 22:10:00,
2013-01-31 16:15:00,67.0,23.4,30.25,SW,226,3.0,15.0,19,0.00,,SKC,0.00,VWS V14.01,2013-01-31 22:15:00,
2013-01-31 16:20:00,67.0,24.6,30.25,SSW,205,7.0,15.0,20,0.00,,SKC,0.00,VWS V14.01,2013-01-31 22:20:00,
2013-01-31 16:25:00,66.7,24.4,30.25,SSE,167,6.0,15.0,20,0.00,,SKC,0.00,VWS V14.01,2013-01-31 22:25:00,
2013-01-31 16:30:00,66.5,24.2,30.25,SSW,200,4.0,15.0,20,0.00,,SKC,0.00,VWS V14.01,2013-01-31 22:30:00,
2013-01-31 16:35:00,66.2,24.0,30.25,SSW,196,4.0,11.0,20,0.00,,SKC,0.00,VWS V14.01,2013-01-31 22:35:00,
2013-01-31 16:40:00,66.1,23.9,30.25,SSW,193,6.0,11.0,20,0.00,,SKC,0.00,VWS V14.01,2013-01-31 22:40:00,
2013-01-31 16:45:00,65.9,23.7,30.25,SW,231,5.0,11.0,20,0.00,,SKC,0.00,VWS V14.01,2013-01-31 22:45:00,
2013-01-31 16:50:00,65.6,23.5,30.25,SW,234,6.0,11.0,20,0.00,,SKC,0.00,VWS V14.01,2013-01-31 22:50:00,
2013-01-31 16:55:00,65.4,24.5,30.25,SW,232,1.0,11.0,21,0.00,,SKC,0.00,VWS V14.01,2013-01-31 22:55:00,
2013-01-31 17:00:00,65.3,24.4,30.25,SW,226,2.0,11.0,21,0.00,,SKC,0.00,VWS V14.01,2013-01-31 23:00:00,
2013-01-31 17:05:00,65.2,23.1,30.25,South,191,5.0,10.0,20,0.00,,SKC,0.00,VWS V14.01,2013-01-31 23:05:00,
2013-01-31 17:10:00,65.0,23.0,30.24,SSW,211,5.0,10.0,20,0.00,,SKC,0.00,VWS V14.01,2013-01-31 23:10:00,
2013-01-31 17:15:00,65.0,23.0,30.25,SSW,207,4.0,10.0,20,0.00,,SKC,0.00,VWS V14.01,2013-01-31 23:15:00,
2013-01-31 17:20:00,64.8,24.0,30.25,SSW,208,0.0,10.0,21,0.00,,SKC,0.00,VWS V14.01,2013-01-31 23:20:00,
2013-01-31 17:25:00,64.7,23.9,30.25,SSW,208,1.0,10.0,21,0.00,,SKC,0.00,VWS V14.01,2013-01-31 23:25:00,
2013-01-31 17:30:00,64.6,22.6,30.24,SSW,213,3.0,10.0,20,0.00,,SKC,0.00,VWS V14.01,2013-01-31 23:30:00,
2013-01-31 17:35:00,64.3,23.6,30.25,SSW,212,5.0,6.0,21,0.00,,SKC,0.00,VWS V14.01,2013-01-31 23:35:00,
2013-01-31 17:40:00,64.0,23.3,30.24,SSW,212,1.0,7.0,21,0.00,,SKC,0.00,VWS V14.01,2013-01-31 23:40:00,
2013-01-31 17:45:00,63.8,24.2,30.24,SSW,213,3.0,7.0,22,0.00,,SKC,0.00,VWS V14.01,2013-01-31 23:45:00,
2013-01-31 17:50:00,63.6,24.1,30.25,SSW,213,1.0,7.0,22,0.00,,SKC,0.00,VWS V14.01,2013-01-31 23:50:00,
2013-01-31 17:55:00,63.4,23.9,30.24,SSW,213,2.0,7.0,22,0.00,,SKC,0.00,VWS V14.01,2013-01-31 23:55:00,
2013-01-31 18:00:00,63.2,23.8,30.24,SSW,213,2.0,7.0,22,0.00,,SKC,0.00,VWS V14.01,2013-02-01 00:00:00,
2013-01-31 18:05:00,62.9,23.5,30.24,SSW,213,1.0,2.0,22,0.00,,SKC,0.00,VWS V14.01,2013-02-01 00:05:00,
2013-01-31 18:10:00,62.6,24.3,30.24,SSW,213,1.0,5.0,23,0.00,,SKC,0.00,VWS V14.01,2013-02-01 00:10:00,
2013-01-31 18:15:00,62.2,24.0,30.24,SSW,213,0.0,5.0,23,0.00,,SKC,0.00,VWS V14.01,2013-02-01 00:15:00,
2013-01-31 18:20:00,61.9,23.7,30.24,SSW,213,0.0,5.0,23,0.00,,SKC,0.00,VWS V14.01,2013-02-01 00:20:00,
2013-01-31 18:25:00,61.6,23.5,30.25,SSW,213,0.0,5.0,23,0.00,,SKC,0.00,VWS V14.01,2013-02-01 00:25:00,
2013-01-31 18:30:00,61.4,24.3,30.25,SSW,213,0.0,5.0,24,0.00,,SKC,0.00,VWS V14.01,2013-02-01 00:30:00,
2013-01-31 18:35:00,61.1,24.1,30.25,SSW,213,0.0,0.0,24,0.00,,SKC,0.00,VWS V14.01,2013-02-01 00:35:00,
2013-01-31 18:40:00,60.8,24.8,30.26,SSW,213,0.0,0.0,25,0.00,,SKC,0.00,VWS V14.01,2013-02-01 00:40:00,
2013-01-31 18:45:00,60.5,25.5,30.26,SSW,213,0.0,0.0,26,0.00,,SKC,0.00,VWS V14.01,2013-02-01 00:45:00,
2013-01-31 18:50:00,60.2,25.2,30.27,SSW,213,0.0,0.0,26,0.00,,SKC,0.00,VWS V14.01,2013-02-01 00:50:00,
2013-01-31 18:55:00,59.9,25.9,30.27,SSW,213,0.0,0.0,27,0.00,,SKC,0.00,VWS V14.01,2013-02-01 00:55:00,
2013-01-31 19:00:00,59.6,25.6,30.27,SSW,213,0.0,0.0,27,0.00,,SKC,0.00,VWS V14.01,2013-02-01 01:00:00,
2013-01-31 19:05:00,59.3,25.4,30.27,SSW,213,0.0,0.0,27,0.00,,SKC,0.00,VWS V14.01,2013-02-01 01:05:00,
2013-01-31 19:10:00,58.9,25.9,30.27,SSW,213,0.0,0.0,28,0.00,,SKC,0.00,VWS V14.01,2013-02-01 01:10:00,
2013-01-31 19:15:00,58.4,26.3,30.27,SSW,213,0.0,0.0,29,0.00,,SKC,0.00,VWS V14.01,2013-02-01 01:15:00,
2013-01-31 19:20:00,57.8,26.6,30.28,SSW,213,0.0,0.0,30,0.00,,SKC,0.00,VWS V14.01,2013-02-01 01:20:00,
2013-01-31 19:25:00,57.1,26.0,30.28,SSW,213,0.0,0.0,30,0.00,,SKC,0.00,VWS V14.01,2013-02-01 01:25:00,
2013-01-31 19:30:00,56.6,26.3,30.29,SSW,213,0.0,0.0,31,0.00,,SKC,0.00,VWS V14.01,2013-02-01 01:30:00,
2013-01-31 19:35:00,56.2,26.0,30.30,SSW,213,0.0,0.0,31,0.00,,SKC,0.00,VWS V14.01,2013-02-01 01:35:00,
2013-01-31 19:40:00,55.8,26.4,30.31,SSW,213,0.0,0.0,32,0.00,,SKC,0.00,VWS V14.01,2013-02-01 01:40:00,
2013-01-31 19:45:00,55.4,26.0,30.31,SSW,213,0.0,0.0,32,0.00,,SKC,0.00,VWS V14.01,2013-02-01 01:45:00,
2013-01-31 19:50:00,55.1,26.5,30.30,SSW,213,0.0,0.0,33,0.00,,SKC,0.00,VWS V14.01,2013-02-01 01:50:00,
2013-01-31 19:55:00,54.8,27.0,30.29,SSW,213,0.0,0.0,34,0.00,,SKC,0.00,VWS V14.01,2013-02-01 01:55:00,
2013-01-31 20:00:00,54.3,26.5,30.30,SSW,213,0.0,0.0,34,0.00,,SKC,0.00,VWS V14.01,2013-02-01 02:00:00,
2013-01-31 20:05:00,53.7,27.4,30.30,SSW,213,0.0,0.0,36,0.00,,SKC,0.00,VWS V14.01,2013-02-01 02:05:00,
2013-01-31 20:10:00,53.3,27.0,30.31,SSW,213,0.0,0.0,36,0.00,,SKC,0.00,VWS V14.01,2013-02-01 02:10:00,
2013-01-31 20:15:00,52.9,27.4,30.32,SSW,213,0.0,0.0,37,0.00,,SKC,0.00,VWS V14.01,2013-02-01 02:15:00,
2013-01-31 20:20:00,52.5,27.6,30.32,SSW,213,0.0,2.0,38,0.00,,SKC,0.00,VWS V14.01,2013-02-01 02:20:00,
2013-01-31 20:25:00,52.1,27.9,30.31,SSW,213,0.0,2.0,39,0.00,,SKC,0.00,VWS V14.01,2013-02-01 02:25:00,
2013-01-31 20:30:00,51.6,28.1,30.32,SSW,213,0.0,2.0,40,0.00,,SKC,0.00,VWS V14.01,2013-02-01 02:30:00,
2013-01-31 20:35:00,51.4,27.9,30.32,SSW,213,0.0,0.0,40,0.00,,SKC,0.00,VWS V14.01,2013-02-01 02:35:00,
2013-01-31 20:40:00,51.1,27.6,30.32,SSW,213,0.0,0.0,40,0.00,,SKC,0.00,VWS V14.01,2013-02-01 02:40:00,
2013-01-31 20:45:00,50.9,28.1,30.31,SSW,213,0.0,0.0,41,0.00,,SKC,0.00,VWS V14.01,2013-02-01 02:45:00,
2013-01-31 20:50:00,50.7,27.9,30.32,SSW,213,0.0,0.0,41,0.00,,SKC,0.00,VWS V14.01,2013-02-01 02:50:00,
2013-01-31 20:55:00,50.4,28.2,30.32,SSW,213,0.0,0.0,42,0.00,,SKC,0.00,VWS V14.01,2013-02-01 02:55:00,
2013-01-31 21:00:00,50.2,28.0,30.32,SSW,213,0.0,0.0,42,0.00,,SKC,0.00,VWS V14.01,2013-02-01 03:00:00,
2013-01-31 21:05:00,49.9,28.3,30.32,SSW,213,0.0,0.0,43,0.00,,SKC,0.00,VWS V14.01,2013-02-01 03:05:00,
2013-01-31 21:10:00,49.6,28.0,30.32,SSW,213,0.0,0.0,43,0.00,,SKC,0.00,VWS V14.01,2013-02-01 03:10:00,
2013-01-31 21:15:00,49.4,28.4,30.32,SSW,213,2.0,2.0,44,0.00,,SKC,0.00,VWS V14.01,2013-02-01 03:15:00,
2013-01-31 21:20:00,49.0,28.0,30.33,SSW,213,0.0,2.0,44,0.00,,SKC,0.00,VWS V14.01,2013-02-01 03:20:00,
2013-01-31 21:25:00,48.8,28.4,30.33,SSW,213,0.0,2.0,45,0.00,,SKC,0.00,VWS V14.01,2013-02-01 03:25:00,
2013-01-31 21:30:00,48.7,28.9,30.32,SSW,213,0.0,2.0,46,0.00,,SKC,0.00,VWS V14.01,2013-02-01 03:30:00,
2013-01-31 21:35:00,48.5,29.2,30.32,SSW,213,0.0,0.0,47,0.00,,SKC,0.00,VWS V14.01,2013-02-01 03:35:00,
2013-01-31 21:40:00,48.3,29.0,30.32,SSW,213,0.0,0.0,47,0.00,,SKC,0.00,VWS V14.01,2013-02-01 03:40:00,
2013-01-31 21:45:00,48.1,29.4,30.32,SSW,213,0.0,0.0,48,0.00,,SKC,0.00,VWS V14.01,2013-02-01 03:45:00,
2013-01-31 21:50:00,47.9,29.2,30.33,SSW,213,0.0,0.0,48,0.00,,SKC,0.00,VWS V14.01,2013-02-01 03:50:00,
2013-01-31 21:55:00,47.6,28.9,30.33,SSW,213,0.0,0.0,48,0.00,,SKC,0.00,VWS V14.01,2013-02-01 03:55:00,
2013-01-31 22:00:00,47.3,29.1,30.33,SSW,213,0.0,0.0,49,0.00,,SKC,0.00,VWS V14.01,2013-02-01 04:00:00,
2013-01-31 22:05:00,46.9,29.2,30.33,SSW,213,0.0,0.0,50,0.00,,SKC,0.00,VWS V14.01,2013-02-01 04:05:00,
2013-01-31 22:10:00,46.6,29.0,30.34,SSW,213,0.0,0.0,50,0.00,,SKC,0.00,VWS V14.01,2013-02-01 04:10:00,
2013-01-31 22:15:00,46.3,28.7,30.34,SSW,213,0.0,2.0,50,0.00,,SKC,0.00,VWS V14.01,2013-02-01 04:15:00,
2013-01-31 22:20:00,45.9,28.8,30.34,SSW,213,0.0,2.0,51,0.00,,SKC,0.00,VWS V14.01,2013-02-01 04:20:00,
2013-01-31 22:25:00,45.6,29.0,30.34,SSW,213,0.0,2.0,52,0.00,,SKC,0.00,VWS V14.01,2013-02-01 04:25:00,
2013-01-31 22:30:00,45.5,29.4,30.34,SSW,213,0.0,2.0,53,0.00,,SKC,0.00,VWS V14.01,2013-02-01 04:30:00,
2013-01-31 22:35:00,45.3,28.7,30.35,SSW,213,0.0,0.0,52,0.00,,SKC,0.00,VWS V14.01,2013-02-01 04:35:00,
2013-01-31 22:40:00,45.3,28.7,30.34,SSW,213,0.0,0.0,52,0.00,,SKC,0.00,VWS V14.01,2013-02-01 04:40:00,
2013-01-31 22:45:00,45.4,28.8,30.34,SSW,213,0.0,0.0,52,0.00,,SKC,0.00,VWS V14.01,2013-02-01 04:45:00,
2013-01-31 22:50:00,45.5,28.9,30.34,SSW,213,0.0,0.0,52,0.00,,SKC,0.00,VWS V14.01,2013-02-01 04:50:00,
2013-01-31 22:55:00,45.6,29.0,30.34,SSW,213,0.0,0.0,52,0.00,,SKC,0.00,VWS V14.01,2013-02-01 04:55:00,
2013-01-31 23:00:00,45.7,29.1,30.35,SSW,213,0.0,0.0,52,0.00,,SKC,0.00,VWS V14.01,2013-02-01 05:00:00,
2013-01-31 23:03:00,45.8,29.2,30.35,SSW,213,0.0,0.0,52,0.00,,SKC,0.00,VWS V14.01,2013-02-01 05:03:00,
2013-01-31 23:08:00,46.0,29.4,30.34,SSW,213,0.0,0.0,52,0.00,,SKC,0.00,VWS V14.01,2013-02-01 05:08:00,
2013-01-31 23:13:00,46.2,30.0,30.34,SSW,213,0.0,0.0,53,0.00,,SKC,0.00,VWS V14.01,2013-02-01 05:13:00,
2013-01-31 23:18:00,46.4,30.2,30.34,SSW,213,0.0,0.0,53,0.00,,SKC,0.00,VWS V14.01,2013-02-01 05:18:00,
2013-01-31 23:23:00,46.5,30.3,30.34,SSW,213,0.0,0.0,53,0.00,,SKC,0.00,VWS V14.01,2013-02-01 05:23:00,
2013-01-31 23:28:00,46.7,30.5,30.34,SSW,213,0.0,0.0,53,0.00,,SKC,0.00,VWS V14.01,2013-02-01 05:28:00,
2013-01-31 23:30:00,46.8,30.6,30.34,SSW,213,0.0,0.0,53,0.00,,SKC,0.00,VWS V14.01,2013-02-01 05:30:00,
2013-01-31 23:33:00,46.9,30.7,30.34,SSW,213,0.0,0.0,53,0.00,,SKC,0.00,VWS V14.01,2013-02-01 05:33:00,
2013-01-31 23:38:00,47.2,31.4,30.34,SSW,213,0.0,1.0,54,0.00,,SKC,0.00,VWS V14.01,2013-02-01 05:38:00,
2013-01-31 23:43:00,47.5,31.7,30.34,SSW,213,0.0,1.0,54,0.00,,SKC,0.00,VWS V14.01,2013-02-01 05:43:00,
2013-01-31 23:48:00,47.8,32.0,30.34,SSW,213,0.0,1.0,54,0.00,,SKC,0.00,VWS V14.01,2013-02-01 05:48:00,
2013-01-31 23:53:00,48.1,32.3,30.34,SSW,213,0.0,1.0,54,0.00,,SKC,0.00,VWS V14.01,2013-02-01 05:53:00,
2013-01-31 23:58:00,48.3,32.4,30.34,SSW,213,0.0,1.0,54,0.00,,SKC,0.00,VWS V14.01,2013-02-01 05:58:00,